{"data":{"norad_id":56301,"epoch":"2026-09-20T04:05:05.233344Z","epoch_age_seconds":137284,"freshness":"FRESH","line1":"1 56301U 23056R   26263.17019946  .00001736  00000+0  79932-4 0  9997","line2":"2 56301  42.9996 188.8310 0000882 279.0970  80.9781 15.24239376189864","mean_motion":15.24239376,"eccentricity":8.82e-5,"inclination_deg":42.9996,"raan_deg":188.831,"arg_perigee_deg":279.097,"mean_anomaly_deg":80.9781,"bstar":7.9932e-5,"rev_number":18986,"period_min":94.473349965472,"perigee_km":492.46435056072,"apogee_km":493.6764315445,"semimajor_km":6871.2073910526,"source":"CELESTRAK","updated_at":"2026-09-21T09:00:33.394337Z"}}